DABTDAAG

Guest
Details From DABT - BATNA
To DAAG - Alger Houari Boumediene
Flight Number -
Tags generated
Created
Modified
Stats Distance 160 nm / 297 km
Max Altitude 18,500 ft / 5,639 m
Waypoints 3
Social Downloads 1
Likes 0
Share VATSIM

Download

Looking for another format? Having issues loading an existing format? Contact us
Advertisement - Login to hide

Notes

Basic altitude profile: - Ascent Rate: 2500ft/min - Ascent Speed: 250kts - Cruise Altitude: 35000ft - Cruise Speed: 420kts - Descent Rate: 1500ft/min - Descent Speed: 250kts Options: - Use NATs: yes - Use PACOTS: yes - Use low airways: yes - Use high airways: yes

Route

DABT TAGRO DAAG

ID Type Via Altitude Latitude Longitude Leg Dist Tot Dist Heading (true) Name
O DABT APT - 0 ft / 0 m 35.75210˚ 6.30859˚ - 0 nm - BATNA
TAGRO FIX - 18,500 ft / 5,639 m 36.21611˚ 5.00000˚ 69 nm 69 nm 294° / 293° -
O DAAG APT - 0 ft / 0 m 36.69752˚ 3.21308˚ 91 nm 160 nm 289° / 288° Alger Houari Boumediene

Altitude Profile

Advertisement - Login to hide

DABT

Details ICAO DABT (BLJ)
Name BATNA
Region Algeria
Timezone Africa/Algiers (UTC+1.0)
Stats Elevation 2,697 ft / 822 m (AMSL)
Location 35.752104° 6.308589°
Runways 1
Magnetic Variation 1.693° E

METAR

DABT 221200Z 33005KT 9999 SCT020 21/11 Q1015

Decode

TAF

TAF DABT 221100Z 2212/2312 34014KT 9999 FEW026 SCT033 TEMPO 2212/2224 02015G25KT 4000 -TSRA FEW020CB BECMG 2220/2222 VRB02KT

Decode

Departure Runways

ID Width Length Bearing (true) Bearing (mag) Surface Threshold Offset Overrun Length
05 148 ft / 45 m 9,837 ft / 2,998 m 54.80° 53.11° Asphalt 0 ft / 0 m 350 ft / 107 m
23 148 ft / 45 m 9,837 ft / 2,998 m 234.81° 233.12° Asphalt 0 ft / 0 m 375 ft / 114 m

DAAG

Details ICAO DAAG (ALG)
Name Alger Houari Boumediene
Region Algeria
Timezone Africa/Algiers (UTC+1.0)
Stats Elevation 82 ft / 25 m (AMSL)
Location 36.697521° 3.213079°
Runways 2
Magnetic Variation 1.102° E

METAR

DAAG 221230Z 35010KT 9999 FEW020 23/16 Q1016

Decode

TAF

TAF DAAG 221100Z 2212/2312 34010KT FEW020 PROB30 TEMPO 2212/2216 FEW023TCU BECMG 2216/2219 VRB02KTKT BECMG 2308/2311 04012KT

Decode

Destination Runways

ID Width Length Bearing (true) Bearing (mag) Surface Threshold Offset Overrun Length
05 197 ft / 60 m 11,459 ft / 3,493 m 52.87° 51.77° Asphalt 0 ft / 0 m 0 ft / 0 m
09 148 ft / 45 m 11,442 ft / 3,487 m 91.75° 90.65° Asphalt 0 ft / 0 m 1,017 ft / 310 m
23 197 ft / 60 m 11,459 ft / 3,493 m 232.89° 231.79° Asphalt 0 ft / 0 m 0 ft / 0 m
27 148 ft / 45 m 11,442 ft / 3,487 m 271.78° 270.68° Asphalt 0 ft / 0 m 0 ft / 0 m

Approach Navaids

Runway Type Ident Frequency Range Bearing (true) Bearing (mag) Slope Elevation
09 Localiser HB 108.50 MHz 18 nm / 33 km 91.73° 90.63° - 82 ft / 25 m (AMSL)
09 Glidescope HB 108.50 MHz 10 nm / 19 km 91.77° 90.66° 3.00° 82 ft / 25 m (AMSL)
23 Localiser AG 110.30 MHz 18 nm / 33 km 232.74° 231.64° - 82 ft / 25 m (AMSL)
23 Glidescope AG 110.30 MHz 10 nm / 19 km 232.88° 231.78° 3.00° 82 ft / 25 m (AMSL)

Popular Alternatives